[[{"header":{"parameterUnit":"m.s-1","parameterCategory":1,"la1":30.2991,"la2":30.254,"lo1":-89.0895,"lo2":-89.0444,"dy":0.0017,"dx":0.0017,"nx":28,"ny":28,"refTime":"2024-07-18T09:00:00:Z","depth":0,"parameterNumber":2,"parameterNumberName":"U-component_of_WINDS"},"data":[0,0,0,0,0,0,0,0,0,0,0,0,0,0,0,0,0,0,0,0,0,0,0,0,0,0,0,0,0,0,0,0,0,0,0,0,0,0,0,0,0,0,0,0,0,0,0,0,0,0,0,0,0,0,0,0,0,0,-0.3689,-0.3688,0,-0.3622,-0.3621,-0.362,-0.3522,-0.3521,-0.3519,-0.3517,-0.345,-0.3449,-0.3449,0,0,0,0,0,0,0,0,0,0,0,0,0,-0.3731,-0.3731,-0.3689,-0.3688,-0.3687,-0.3622,-0.3621,-0.362,-0.3523,-0.3521,-0.3518,-0.3517,-0.345,-0.3449,-0.3449,0,0,0,0,0,0,0,0,0,0,0,0,0,-0.3693,-0.3731,-0.3689,-0.3631,-0.3625,-0.3622,-0.3621,-0.362,-0.3523,-0.352,-0.3518,-0.3516,-0.345,-0.3449,-0.3449,-0.3498,0,0,-0.3448,-0.3448,0,0,0,0,0,0,0,0,-0.3696,-0.3692,-0.364,-0.3635,-0.3628,-0.3578,-0.3611,-0.3579,-0.3524,-0.3562,-0.3517,-0.3514,-0.3494,-0.349,-0.3483,-0.3495,-0.3492,-0.3448,-0.3448,-0.3448,-0.3448,0,0,0,0,0,0,0,-0.3698,-0.3694,-0.3662,-0.3639,-0.3632,-0.3607,-0.3599,-0.3604,-0.3543,-0.3558,-0.3551,-0.3544,-0.3491,-0.3484,-0.3481,-0.3491,-0.3448,-0.3448,-0.3448,-0.3447,-0.3536,-0.3538,0,0,0,0,0,0,-0.371,-0.3697,-0.3664,-0.366,-0.3656,-0.3609,-0.3599,-0.3596,-0.3543,-0.3532,-0.3547,-0.354,-0.3486,-0.3481,-0.3478,-0.3529,-0.3448,-0.3447,-0.3447,-0.3533,-0.3536,-0.3539,0,0,0,0,0,0,-0.3711,-0.3708,-0.3667,-0.3676,-0.3669,-0.3611,-0.3608,-0.3596,-0.3589,-0.3534,-0.3523,-0.3551,-0.3483,-0.3479,-0.3493,-0.3526,-0.3447,-0.3447,-0.353,-0.3534,-0.3538,-0.3634,0,0,0,0,0,0,-0.3713,-0.3709,-0.3727,-0.3678,-0.3669,-0.3684,-0.361,-0.3597,-0.3589,-0.358,-0.3535,-0.3525,-0.3481,-0.3494,-0.3493,-0.3524,-0.3447,-0.3527,-0.3532,-0.3536,-0.3628,-0.3641,-0.3652,0,0,0,0,0,-0.3714,-0.3758,-0.3729,-0.3725,-0.3691,-0.3686,-0.3681,-0.3629,-0.3592,-0.361,-0.3573,-0.3527,-0.3523,-0.3496,-0.3494,-0.3526,-0.3525,-0.353,-0.3536,-0.3622,-0.3638,-0.3651,0,0,0,0,0,0,-0.3814,-0.3751,-0.3717,-0.3746,-0.3722,-0.3669,-0.369,-0.3648,-0.3634,-0.3626,-0.3562,-0.3553,-0.3575,-0.3552,-0.3523,-0.3568,-0.3516,-0.3522,-0.3582,-0.3597,-0.3609,-0.3614,-0.3446,0,0,0,0,0,-0.3839,-0.384,-0.3785,-0.3816,-0.3805,-0.375,-0.3746,-0.3707,-0.368,-0.3669,-0.3634,-0.3609,-0.3601,-0.3598,-0.3589,-0.3624,-0.3611,-0.3644,-0.3656,-0.3666,-0.3672,-0.3685,-0.3698,-0.3558,-0.3558,-0.3558,0,0,-0.3892,-0.3857,-0.3862,-0.3835,-0.3811,-0.3813,-0.3742,-0.3747,-0.3747,-0.367,-0.368,-0.3654,-0.3622,-0.3646,-0.3655,-0.3627,-0.3708,-0.3674,-0.3682,-0.3682,-0.3692,-0.3706,-0.3718,-0.3562,-0.3561,-0.356,0,0,-0.3987,-0.3962,-0.3984,-0.3961,-0.3926,-0.3889,-0.3894,-0.3847,-0.3826,-0.3835,-0.3776,-0.3775,-0.3765,-0.3743,-0.3731,-0.3816,-0.3771,-0.3814,-0.3877,-0.3891,-0.3902,-0.3912,-0.3939,-0.395,-0.382,-0.382,-0.382,0,-0.4057,-0.4057,-0.4,-0.4008,-0.3997,-0.3926,-0.3946,-0.3927,-0.3891,-0.3885,-0.3855,-0.3837,-0.3811,-0.3827,-0.3848,-0.3841,-0.3843,-0.3819,-0.3905,-0.3914,-0.3922,-0.3948,-0.3959,-0.3825,-0.3825,-0.3824,-0.3824,0,-0.4143,-0.4144,-0.4165,-0.4131,-0.4122,-0.4137,-0.4081,-0.4079,-0.4041,-0.4006,-0.4015,-0.398,-0.3961,-0.3962,-0.3926,-0.3973,-0.3956,-0.3917,-0.3863,-0.3942,-0.3964,-0.3974,-0.3833,-0.3831,-0.383,-0.3828,0,0,-0.43,-0.4232,-0.4241,-0.4223,-0.4178,-0.4177,-0.4188,-0.4168,-0.4166,-0.4144,-0.4149,-0.414,-0.4102,-0.4088,-0.4049,-0.4061,-0.4127,-0.4019,-0.4017,-0.4038,-0.4173,-0.4202,-0.4214,-0.4097,-0.4099,-0.41,-0.4175,0,-0.4385,-0.4399,-0.4347,-0.4373,-0.4372,-0.4303,-0.4312,-0.4284,-0.4252,-0.4245,-0.4209,-0.4203,-0.4155,-0.4145,-0.4155,-0.4117,-0.4153,-0.4111,-0.41,-0.41,-0.4109,-0.4227,-0.4258,-0.433,-0.4184,-0.4185,-0.4186,0,-0.4487,-0.4468,-0.4494,-0.4445,-0.4442,-0.4451,-0.4427,-0.4422,-0.4389,-0.4364,-0.4348,-0.4301,-0.4306,-0.4255,-0.426,-0.4233,-0.4225,-0.4206,-0.4207,-0.4203,-0.4147,-0.4224,-0.4352,-0.4362,-0.42,-0.4199,-0.4198,0,-0.4596,-0.4577,-0.4589,-0.4577,-0.4521,-0.4528,-0.4504,-0.4469,-0.4459,-0.4438,-0.4431,-0.4412,-0.44,-0.4386,-0.4334,-0.4303,-0.4344,-0.429,-0.4322,-0.4323,-0.4333,-0.4333,-0.446,-0.4332,-0.4332,-0.4331,-0.4331,0,-0.4696,-0.4714,-0.4637,-0.4645,-0.4662,-0.4602,-0.462,-0.459,-0.4559,-0.4558,-0.4498,-0.4499,-0.4432,-0.4425,-0.4385,-0.4393,-0.4389,-0.4368,-0.4357,-0.4372,-0.4375,-0.4365,-0.4358,-0.4334,-0.4334,-0.4333,-0.4333,0,-0.4821,-0.477,-0.4778,-0.4724,-0.471,-0.4725,-0.4678,-0.4682,-0.4645,-0.4645,-0.4641,-0.4583,-0.4571,-0.4518,-0.4495,-0.4467,-0.4488,-0.4468,-0.4499,-0.4492,-0.4526,-0.4523,-0.465,-0.4663,-0.4529,-0.453,-0.4531,0,-0.4887,-0.4898,-0.4845,-0.4839,-0.4819,-0.4812,-0.4801,-0.4742,-0.4733,-0.4694,-0.4702,-0.4685,-0.4668,-0.4652,-0.4607,-0.4588,-0.4565,-0.4611,-0.4562,-0.4576,-0.4563,-0.4562,-0.4561,-0.4621,-0.4623,-0.4624,-0.4626,0,-0.5008,-0.4982,-0.4969,-0.4947,-0.4935,-0.4915,-0.4891,-0.489,-0.4824,-0.4817,-0.4803,-0.479,-0.4764,-0.4747,-0.472,-0.4695,-0.4648,-0.4641,-0.4647,-0.4663,-0.4679,-0.4668,-0.4526,-0.4639,-0.4637,-0.4636,-0.4636,-0.4635,-0.5104,-0.511,-0.5072,-0.5059,-0.5034,-0.5013,-0.5013,-0.4975,-0.4963,-0.4936,-0.4902,-0.4892,-0.4856,-0.4814,-0.4792,-0.4783,-0.4757,-0.4767,-0.4769,-0.4772,-0.4778,-0.4682,-0.4778,-0.4778,-0.4777,-0.4777,-0.4777,0,-0.522,-0.5192,-0.518,-0.5148,-0.5137,-0.5094,-0.5065,-0.5058,-0.505,-0.502,-0.5004,-0.4987,-0.497,-0.4923,-0.49,-0.4902,-0.488,-0.4898,-0.4896,-0.489,-0.4804,-0.48,-0.4916,-0.4916,-0.4915,-0.4915,-0.4915,-0.4915,-0.5279,-0.5287,-0.5256,-0.5249,-0.5221,-0.521,-0.5197,-0.5176,-0.5151,-0.5135,-0.512,-0.5089,-0.5051,-0.5025,-0.5007,-0.4993,-0.4987,-0.5011,-0.4991,-0.491,-0.4897,-0.4884,-0.488,-0.5011,-0.5011,-0.5077,-0.5078,-0.5079]},{"header":{"parameterUnit":"m.s-1","parameterCategory":1,"la1":30.2991,"la2":30.254,"lo1":-89.0895,"lo2":-89.0444,"dy":0.0017,"dx":0.0017,"nx":28,"ny":28,"refTime":"2024-07-18T09:00:00:Z","depth":0,"parameterNumber":3,"parameterNumberName":"V-component_of_WINDS"},"data":[0,0,0,0,0,0,0,0,0,0,0,0,0,0,0,0,0,0,0,0,0,0,0,0,0,0,0,0,0,0,0,0,0,0,0,0,0,0,0,0,0,0,0,0,0,0,0,0,0,0,0,0,0,0,0,0,0,0,-0.1097,-0.1098,0,-0.1205,-0.1207,-0.1208,-0.1282,-0.1282,-0.1283,-0.1283,-0.1393,-0.1395,-0.1398,0,0,0,0,0,0,0,0,0,0,0,0,0,-0.0951,-0.0953,-0.1097,-0.1098,-0.1099,-0.1205,-0.1207,-0.1208,-0.1282,-0.1282,-0.1283,-0.1284,-0.1392,-0.1395,-0.1398,0,0,0,0,0,0,0,0,0,0,0,0,0,-0.1032,-0.0954,-0.1096,-0.1149,-0.1155,-0.1205,-0.1207,-0.1208,-0.1281,-0.1282,-0.1283,-0.1284,-0.1391,-0.1395,-0.1398,-0.1404,0,0,-0.1409,-0.1411,0,0,0,0,0,0,0,0,-0.1028,-0.1038,-0.114,-0.1145,-0.1152,-0.1231,-0.1196,-0.1274,-0.1281,-0.1233,-0.1283,-0.1284,-0.1338,-0.1346,-0.1365,-0.141,-0.1414,-0.141,-0.1412,-0.1413,-0.1414,0,0,0,0,0,0,0,-0.1022,-0.1033,-0.114,-0.1141,-0.1149,-0.1166,-0.1179,-0.1211,-0.128,-0.1238,-0.1243,-0.1255,-0.1342,-0.1361,-0.1368,-0.1416,-0.141,-0.1413,-0.1415,-0.1416,-0.147,-0.1469,0,0,0,0,0,0,-0.1008,-0.1028,-0.1136,-0.1143,-0.1091,-0.1168,-0.1182,-0.1205,-0.128,-0.1292,-0.1254,-0.1258,-0.1355,-0.1364,-0.1372,-0.1383,-0.1413,-0.1417,-0.1419,-0.147,-0.1469,-0.1469,0,0,0,0,0,0,-0.1005,-0.1017,-0.1132,-0.1087,-0.1103,-0.117,-0.1195,-0.1206,-0.1226,-0.1292,-0.1305,-0.1262,-0.1356,-0.1367,-0.1396,-0.1388,-0.1418,-0.1422,-0.1471,-0.147,-0.1469,-0.1405,0,0,0,0,0,0,-0.1,-0.1016,-0.1019,-0.1087,-0.1105,-0.1154,-0.1194,-0.1208,-0.1232,-0.1238,-0.1303,-0.1314,-0.1357,-0.139,-0.1399,-0.1393,-0.1425,-0.1472,-0.1471,-0.1469,-0.1409,-0.1402,-0.1397,0,0,0,0,0,-0.0995,-0.0997,-0.1019,-0.1032,-0.1111,-0.1153,-0.1164,-0.1214,-0.1231,-0.1235,-0.1277,-0.1312,-0.1387,-0.1392,-0.1403,-0.1398,-0.1473,-0.1471,-0.1469,-0.1411,-0.1404,-0.1397,0,0,0,0,0,0,-0.0927,-0.1007,-0.1032,-0.1056,-0.1097,-0.1166,-0.1172,-0.1204,-0.1241,-0.1245,-0.1306,-0.1319,-0.1341,-0.1373,-0.1377,-0.1408,-0.1434,-0.1435,-0.1386,-0.1379,-0.1374,-0.1365,-0.1428,0,0,0,0,0,-0.0914,-0.0943,-0.1011,-0.1026,-0.1045,-0.1105,-0.1125,-0.116,-0.1205,-0.1223,-0.1267,-0.1309,-0.1342,-0.1363,-0.1397,-0.1414,-0.1428,-0.1416,-0.141,-0.1405,-0.1404,-0.1414,-0.1409,-0.1463,-0.1463,-0.1463,0,0,-0.0889,-0.0937,-0.0951,-0.1013,-0.1049,-0.1076,-0.1119,-0.1146,-0.1166,-0.1227,-0.1256,-0.129,-0.1341,-0.1363,-0.1375,-0.139,-0.1393,-0.1403,-0.1398,-0.1401,-0.1412,-0.1406,-0.1402,-0.1462,-0.1462,-0.1462,0,0,-0.0857,-0.0896,-0.0912,-0.0947,-0.1001,-0.1041,-0.1044,-0.1108,-0.1133,-0.1164,-0.1209,-0.1234,-0.129,-0.1324,-0.1348,-0.1327,-0.136,-0.1337,-0.1306,-0.1315,-0.1311,-0.1307,-0.1298,-0.1295,-0.1336,-0.1336,-0.1336,0,-0.0819,-0.0862,-0.0916,-0.094,-0.0965,-0.1022,-0.1037,-0.1069,-0.1131,-0.1147,-0.1163,-0.1234,-0.1272,-0.1302,-0.1297,-0.1315,-0.132,-0.1329,-0.1307,-0.1304,-0.1302,-0.1294,-0.1291,-0.1333,-0.1333,-0.1334,-0.1334,0,-0.0811,-0.084,-0.0847,-0.0905,-0.0932,-0.0951,-0.1007,-0.1027,-0.106,-0.1097,-0.1127,-0.1174,-0.1219,-0.1229,-0.1261,-0.1263,-0.127,-0.1296,-0.1324,-0.1292,-0.1286,-0.1284,-0.1328,-0.1329,-0.133,-0.1331,0,0,-0.0739,-0.0827,-0.0828,-0.0855,-0.0918,-0.0941,-0.0963,-0.1007,-0.1022,-0.1063,-0.1081,-0.1127,-0.1151,-0.1179,-0.1215,-0.1223,-0.1201,-0.1247,-0.125,-0.1236,-0.1205,-0.1184,-0.118,-0.1224,-0.1223,-0.1223,-0.12,0,-0.0716,-0.0758,-0.0807,-0.0832,-0.0859,-0.0912,-0.0931,-0.0971,-0.1006,-0.1033,-0.1073,-0.1103,-0.1133,-0.115,-0.116,-0.1202,-0.1196,-0.1204,-0.1241,-0.1241,-0.1225,-0.1177,-0.1156,-0.1132,-0.1198,-0.1198,-0.1198,0,-0.0694,-0.0732,-0.0759,-0.0819,-0.0832,-0.0848,-0.0891,-0.0917,-0.0963,-0.0989,-0.1019,-0.1058,-0.1082,-0.1107,-0.1141,-0.1145,-0.1163,-0.1186,-0.1186,-0.119,-0.1217,-0.1179,-0.1126,-0.1122,-0.1195,-0.1195,-0.1195,0,-0.0636,-0.0694,-0.0718,-0.074,-0.081,-0.082,-0.085,-0.0897,-0.092,-0.0957,-0.0972,-0.1012,-0.1033,-0.1063,-0.1111,-0.1125,-0.1139,-0.1168,-0.1159,-0.1158,-0.1159,-0.1158,-0.1107,-0.1172,-0.1172,-0.1172,-0.1172,0,-0.0604,-0.0619,-0.0693,-0.0708,-0.0725,-0.0781,-0.0796,-0.0831,-0.0872,-0.0893,-0.0942,-0.0961,-0.1024,-0.105,-0.1087,-0.1109,-0.1118,-0.1138,-0.1148,-0.1133,-0.1131,-0.1145,-0.1147,-0.1172,-0.1172,-0.1172,-0.1172,0,-0.0543,-0.0593,-0.0622,-0.0687,-0.0704,-0.0713,-0.0768,-0.0784,-0.0822,-0.0848,-0.0857,-0.0917,-0.095,-0.1001,-0.1049,-0.1074,-0.1089,-0.1106,-0.1073,-0.1079,-0.1066,-0.1066,-0.1021,-0.1017,-0.1086,-0.1085,-0.1085,0,-0.0518,-0.053,-0.0596,-0.0614,-0.0642,-0.0671,-0.0694,-0.0749,-0.0771,-0.0824,-0.0832,-0.0869,-0.0902,-0.0952,-0.0999,-0.1035,-0.1052,-0.1034,-0.1058,-0.1043,-0.105,-0.1048,-0.1049,-0.1028,-0.1027,-0.1026,-0.1026,0,-0.0469,-0.0493,-0.0525,-0.0565,-0.0591,-0.0625,-0.0662,-0.0674,-0.0736,-0.0758,-0.0793,-0.0818,-0.0867,-0.0902,-0.0945,-0.0975,-0.101,-0.1018,-0.1017,-0.1002,-0.0982,-0.0991,-0.1056,-0.1018,-0.1019,-0.102,-0.102,-0.102,-0.0424,-0.0437,-0.0485,-0.0518,-0.0552,-0.0584,-0.0602,-0.0642,-0.0672,-0.0716,-0.0746,-0.0778,-0.0823,-0.0885,-0.0913,-0.0938,-0.0954,-0.0953,-0.0953,-0.0952,-0.0946,-0.0979,-0.0947,-0.0947,-0.0947,-0.0947,-0.0948,0,-0.0376,-0.0409,-0.044,-0.0489,-0.0515,-0.0546,-0.0588,-0.0607,-0.0635,-0.0674,-0.0705,-0.0744,-0.0778,-0.0827,-0.0865,-0.0876,-0.0893,-0.0884,-0.0883,-0.0889,-0.0931,-0.0927,-0.0869,-0.0869,-0.0869,-0.0869,-0.0869,-0.0869,-0.0354,-0.0377,-0.0407,-0.0446,-0.0479,-0.0511,-0.0532,-0.0562,-0.0594,-0.0635,-0.0664,-0.0696,-0.0739,-0.078,-0.0813,-0.0826,-0.0837,-0.0823,-0.0841,-0.0879,-0.0886,-0.0893,-0.0889,-0.0825,-0.0825,-0.0797,-0.0797,-0.0797]}]]